[[{"header":{"parameterUnit":"m.s-1","parameterCategory":1,"la1":30.2991,"la2":30.254,"lo1":-89.0895,"lo2":-89.0444,"dy":0.0017,"dx":0.0017,"nx":28,"ny":28,"refTime":"2024-07-13T21:00:00:Z","depth":0,"parameterNumber":2,"parameterNumberName":"U-component_of_WINDS"},"data":[0,0,0,0,0,0,0,0,0,0,0,0,0,0,0,0,0,0,0,0,0,0,0,0,0,0,0,0,0,0,0,0,0,0,0,0,0,0,0,0,0,0,0,0,0,0,0,0,0,0,0,0,0,0,0,0,0,0,1.3505,1.3506,0,1.3603,1.3604,1.3605,1.359,1.3588,1.3586,1.3585,1.3693,1.3697,1.3702,0,0,0,0,0,0,0,0,0,0,0,0,0,1.3314,1.3318,1.3505,1.3506,1.3507,1.3602,1.3604,1.3605,1.359,1.3588,1.3586,1.3584,1.3691,1.3697,1.3702,0,0,0,0,0,0,0,0,0,0,0,0,0,1.3403,1.3319,1.3505,1.3511,1.3513,1.3602,1.3604,1.3605,1.359,1.3588,1.3585,1.3583,1.369,1.3696,1.3703,1.3795,0,0,1.3723,1.3726,0,0,0,0,0,0,0,0,1.3398,1.341,1.3509,1.3511,1.3513,1.3581,1.3576,1.3669,1.3591,1.3561,1.3585,1.3582,1.3658,1.3667,1.3692,1.38,1.3804,1.3724,1.3728,1.3731,1.3733,0,0,0,0,0,0,0,1.3392,1.3406,1.3544,1.3511,1.3513,1.3512,1.3522,1.3594,1.3623,1.3564,1.3563,1.3574,1.3659,1.3685,1.3694,1.3806,1.3724,1.373,1.3734,1.3736,1.3997,1.4,0,0,0,0,0,0,1.3383,1.3401,1.3541,1.3547,1.3448,1.3517,1.3528,1.3562,1.3622,1.3629,1.3576,1.3573,1.3675,1.3686,1.3698,1.3811,1.3731,1.3737,1.3741,1.3994,1.3998,1.4001,0,0,0,0,0,0,1.3379,1.3396,1.3537,1.3474,1.3492,1.3523,1.3561,1.3565,1.3591,1.3631,1.3637,1.3597,1.3673,1.3688,1.3771,1.3815,1.374,1.3746,1.3991,1.3995,1.3999,1.4037,0,0,0,0,0,0,1.3373,1.3394,1.3427,1.3474,1.3495,1.3606,1.3564,1.3569,1.3602,1.3599,1.3653,1.3659,1.3673,1.3761,1.3777,1.3822,1.3751,1.3987,1.3993,1.3998,1.4032,1.4042,1.4051,0,0,0,0,0,1.3367,1.3436,1.3429,1.3446,1.3537,1.3608,1.362,1.3632,1.3605,1.3641,1.3667,1.3658,1.3806,1.3769,1.3788,1.3836,1.3984,1.3991,1.3997,1.4028,1.404,1.4051,0,0,0,0,0,0,1.3396,1.3442,1.3435,1.3521,1.356,1.3605,1.365,1.3644,1.3694,1.369,1.3704,1.3717,1.3801,1.3826,1.3784,1.3929,1.3892,1.3903,1.3909,1.3921,1.393,1.3924,1.3757,0,0,0,0,0,1.3412,1.3463,1.3502,1.3574,1.3594,1.3618,1.365,1.3655,1.3698,1.3715,1.3747,1.3792,1.3849,1.3886,1.394,1.4035,1.4048,1.4077,1.4087,1.4094,1.4104,1.4158,1.4172,1.4022,1.4022,1.4022,0,0,1.3446,1.3478,1.351,1.358,1.3612,1.3668,1.3633,1.3693,1.3736,1.3726,1.3805,1.383,1.388,1.397,1.4011,1.3994,1.4148,1.4103,1.4108,1.4114,1.4167,1.4181,1.4193,1.4027,1.4026,1.4025,0,0,1.3538,1.3566,1.3629,1.3661,1.3708,1.3724,1.3739,1.3785,1.38,1.3879,1.3873,1.3925,1.4022,1.4059,1.4091,1.4196,1.4191,1.4214,1.4264,1.4316,1.4328,1.4339,1.4379,1.4393,1.4223,1.4223,1.4223,0,1.3576,1.3657,1.3664,1.3725,1.3757,1.3747,1.3814,1.3845,1.3909,1.3933,1.3911,1.4034,1.4067,1.4166,1.4191,1.4216,1.4237,1.4209,1.4325,1.4336,1.4346,1.4385,1.4399,1.4225,1.4225,1.4225,1.4225,0,1.3702,1.3759,1.3805,1.3864,1.3901,1.3965,1.3984,1.4022,1.4024,1.4043,1.4125,1.4164,1.4227,1.425,1.4254,1.4351,1.4339,1.4321,1.4285,1.4363,1.44,1.4414,1.4229,1.4228,1.4227,1.4227,0,0,1.3817,1.3877,1.3895,1.3922,1.3972,1.4018,1.4082,1.4141,1.4174,1.4218,1.4274,1.4356,1.4341,1.4376,1.4384,1.443,1.4514,1.4407,1.4409,1.4428,1.4625,1.464,1.4656,1.4509,1.4512,1.4514,1.4622,0,1.3915,1.4025,1.4033,1.4134,1.4188,1.4179,1.4236,1.4275,1.4294,1.4345,1.4368,1.4426,1.44,1.4422,1.4466,1.4494,1.4554,1.4486,1.4565,1.4568,1.4555,1.4675,1.469,1.479,1.4636,1.4638,1.464,0,1.4045,1.409,1.4195,1.4239,1.4262,1.4312,1.4368,1.4415,1.446,1.4471,1.451,1.4512,1.4581,1.454,1.4637,1.4591,1.4623,1.4642,1.4646,1.4656,1.461,1.4691,1.4822,1.4838,1.4662,1.466,1.4659,0,1.4121,1.4208,1.4283,1.4306,1.4358,1.4394,1.4418,1.446,1.4495,1.4544,1.4568,1.4625,1.4658,1.4703,1.4721,1.4689,1.4818,1.4779,1.4833,1.4832,1.4862,1.4861,1.5003,1.4879,1.4879,1.4879,1.4878,0,1.4231,1.4297,1.4318,1.4364,1.4438,1.4447,1.4521,1.4544,1.4581,1.4634,1.4631,1.4681,1.47,1.4754,1.4769,1.4849,1.4863,1.4876,1.488,1.4878,1.4877,1.4902,1.4896,1.4883,1.4882,1.4881,1.488,0,1.4329,1.4345,1.4427,1.4469,1.4481,1.4534,1.4572,1.4618,1.4636,1.4703,1.4719,1.4749,1.4813,1.4834,1.4912,1.4922,1.5015,1.5012,1.5,1.5001,1.5055,1.505,1.522,1.5244,1.5102,1.5103,1.5104,0,1.44,1.445,1.4496,1.453,1.4555,1.4609,1.4644,1.4656,1.4694,1.4749,1.4789,1.4851,1.4902,1.5005,1.5035,1.5095,1.5095,1.515,1.5104,1.5101,1.5099,1.5097,1.5103,1.516,1.5161,1.5163,1.5164,0,1.4524,1.4529,1.4579,1.4632,1.4673,1.4716,1.4757,1.4786,1.4804,1.4847,1.491,1.4949,1.5028,1.5091,1.5152,1.518,1.5177,1.5177,1.5193,1.5193,1.5185,1.5193,1.5026,1.5174,1.5173,1.5172,1.5172,1.5171,1.4613,1.4657,1.4697,1.4753,1.4784,1.4823,1.4869,1.4891,1.4944,1.5007,1.5011,1.508,1.5126,1.5207,1.5238,1.5294,1.5279,1.5302,1.5308,1.5314,1.532,1.5174,1.5305,1.5305,1.5305,1.5305,1.5304,0,1.4739,1.4764,1.4814,1.4871,1.4916,1.4904,1.4949,1.4989,1.5049,1.509,1.5139,1.5213,1.5274,1.5309,1.5371,1.541,1.541,1.5426,1.5425,1.5432,1.5328,1.5309,1.5425,1.5425,1.5425,1.5425,1.5425,1.5425,1.481,1.4885,1.4895,1.4987,1.5012,1.5078,1.5105,1.5142,1.5175,1.5257,1.5306,1.5327,1.5367,1.5431,1.5488,1.5497,1.5521,1.554,1.5547,1.5451,1.5439,1.5427,1.5409,1.5544,1.5544,1.5646,1.5647,1.5648]},{"header":{"parameterUnit":"m.s-1","parameterCategory":1,"la1":30.2991,"la2":30.254,"lo1":-89.0895,"lo2":-89.0444,"dy":0.0017,"dx":0.0017,"nx":28,"ny":28,"refTime":"2024-07-13T21:00:00:Z","depth":0,"parameterNumber":3,"parameterNumberName":"V-component_of_WINDS"},"data":[0,0,0,0,0,0,0,0,0,0,0,0,0,0,0,0,0,0,0,0,0,0,0,0,0,0,0,0,0,0,0,0,0,0,0,0,0,0,0,0,0,0,0,0,0,0,0,0,0,0,0,0,0,0,0,0,0,0,0.6439,0.6439,0,0.6475,0.6475,0.6475,0.6469,0.6469,0.6468,0.6468,0.6505,0.6507,0.6508,0,0,0,0,0,0,0,0,0,0,0,0,0,0.6364,0.6365,0.6439,0.6439,0.644,0.6475,0.6475,0.6476,0.6469,0.6469,0.6468,0.6467,0.6505,0.6506,0.6508,0,0,0,0,0,0,0,0,0,0,0,0,0,0.6398,0.6366,0.6439,0.6441,0.6441,0.6474,0.6475,0.6476,0.647,0.6469,0.6468,0.6467,0.6504,0.6506,0.6509,0.6542,0,0,0.6516,0.6517,0,0,0,0,0,0,0,0,0.6396,0.64,0.644,0.6441,0.6441,0.6467,0.6462,0.6498,0.647,0.6459,0.6468,0.6466,0.6493,0.6496,0.6505,0.6544,0.6545,0.6516,0.6517,0.6518,0.6519,0,0,0,0,0,0,0,0.6393,0.6399,0.6453,0.6441,0.6441,0.644,0.6443,0.6469,0.6481,0.646,0.6459,0.6464,0.6493,0.6503,0.6506,0.6546,0.6516,0.6518,0.652,0.652,0.6612,0.6613,0,0,0,0,0,0,0.639,0.6397,0.6452,0.6454,0.6416,0.6442,0.6446,0.6459,0.6481,0.6483,0.6464,0.6463,0.6499,0.6503,0.6507,0.6547,0.6518,0.6521,0.6522,0.6611,0.6612,0.6613,0,0,0,0,0,0,0.6389,0.6395,0.645,0.6425,0.6432,0.6444,0.6459,0.6461,0.647,0.6484,0.6486,0.6472,0.6499,0.6504,0.6533,0.6548,0.6522,0.6524,0.661,0.6611,0.6613,0.6626,0,0,0,0,0,0,0.6387,0.6395,0.6408,0.6426,0.6434,0.6476,0.646,0.6462,0.6474,0.6473,0.6492,0.6494,0.6498,0.6529,0.6535,0.6551,0.6526,0.6609,0.661,0.6612,0.6625,0.6628,0.6631,0,0,0,0,0,0.6384,0.6411,0.6409,0.6415,0.645,0.6477,0.6481,0.6485,0.6475,0.6488,0.6497,0.6493,0.6545,0.6532,0.6539,0.6555,0.6608,0.661,0.6612,0.6623,0.6628,0.6631,0,0,0,0,0,0,0.6396,0.6414,0.6411,0.6445,0.6459,0.6476,0.6492,0.649,0.6508,0.6506,0.651,0.6515,0.6544,0.6553,0.6538,0.6588,0.6575,0.6579,0.6581,0.6585,0.6589,0.6586,0.6528,0,0,0,0,0,0.6402,0.6422,0.6436,0.6464,0.6472,0.6481,0.6492,0.6494,0.6509,0.6516,0.6526,0.6541,0.6561,0.6574,0.6592,0.6626,0.6629,0.664,0.6643,0.6646,0.6649,0.6666,0.6671,0.6621,0.6621,0.6621,0,0,0.6415,0.6428,0.644,0.6467,0.6478,0.6498,0.6486,0.6508,0.6523,0.6519,0.6547,0.6555,0.6572,0.6603,0.6617,0.6611,0.6664,0.6649,0.6651,0.6653,0.6669,0.6674,0.6678,0.6622,0.6622,0.6622,0,0,0.645,0.6462,0.6486,0.6497,0.6514,0.6519,0.6525,0.6542,0.6547,0.6574,0.6571,0.6589,0.6623,0.6634,0.6645,0.6682,0.6679,0.6688,0.6705,0.6721,0.6725,0.6729,0.6741,0.6746,0.6691,0.6691,0.6691,0,0.6465,0.6495,0.6498,0.652,0.6532,0.6528,0.6552,0.6563,0.6585,0.6593,0.6586,0.6627,0.6638,0.6671,0.668,0.6689,0.6695,0.6686,0.6724,0.6728,0.6731,0.6743,0.6748,0.6692,0.6692,0.6692,0.6691,0,0.6512,0.6533,0.655,0.6571,0.6584,0.6607,0.6613,0.6626,0.6626,0.6632,0.666,0.6673,0.6693,0.6701,0.6702,0.6734,0.673,0.6723,0.671,0.6737,0.6748,0.6753,0.6693,0.6693,0.6692,0.6692,0,0,0.6556,0.6577,0.6583,0.6592,0.6609,0.6625,0.6648,0.6667,0.6678,0.6693,0.6711,0.6739,0.6733,0.6744,0.6746,0.6761,0.6788,0.6753,0.6753,0.6758,0.6822,0.6827,0.6832,0.6786,0.6786,0.6787,0.6821,0,0.6591,0.663,0.6633,0.6668,0.6687,0.6683,0.6702,0.6714,0.672,0.6736,0.6743,0.6762,0.6753,0.676,0.6774,0.6781,0.6801,0.6779,0.6802,0.6803,0.6798,0.6838,0.6843,0.6874,0.6825,0.6826,0.6827,0,0.6639,0.6654,0.6691,0.6704,0.6712,0.6729,0.6747,0.6763,0.6776,0.678,0.6792,0.6791,0.6813,0.6799,0.6829,0.6814,0.6824,0.6828,0.683,0.6832,0.6816,0.6841,0.6884,0.6889,0.6834,0.6833,0.6833,0,0.6666,0.6696,0.6721,0.6729,0.6746,0.6758,0.6765,0.6778,0.6789,0.6804,0.6811,0.6829,0.6839,0.6852,0.6856,0.6846,0.6885,0.6872,0.6888,0.6888,0.6897,0.6896,0.6942,0.6904,0.6903,0.6903,0.6903,0,0.6705,0.6728,0.6734,0.6749,0.6774,0.6776,0.6801,0.6807,0.6818,0.6835,0.6833,0.6848,0.6852,0.6868,0.6872,0.6895,0.69,0.6903,0.6903,0.6903,0.6902,0.6909,0.6907,0.6905,0.6904,0.6904,0.6904,0,0.674,0.6745,0.6772,0.6785,0.6789,0.6807,0.6818,0.6832,0.6837,0.6858,0.6863,0.6871,0.6889,0.6894,0.6917,0.6919,0.6947,0.6945,0.6942,0.6942,0.6957,0.6956,0.7009,0.7016,0.6973,0.6973,0.6974,0,0.6765,0.6782,0.6796,0.6807,0.6814,0.6832,0.6843,0.6845,0.6857,0.6873,0.6885,0.6904,0.6918,0.6948,0.6956,0.6973,0.6972,0.6989,0.6974,0.6973,0.6971,0.697,0.6971,0.6992,0.6992,0.6993,0.6993,0,0.6808,0.6809,0.6825,0.6841,0.6854,0.6867,0.688,0.6888,0.6893,0.6906,0.6924,0.6935,0.6958,0.6976,0.6992,0.7,0.6997,0.6997,0.7002,0.7002,0.6999,0.7,0.6949,0.6996,0.6996,0.6996,0.6996,0.6995,0.6838,0.6852,0.6864,0.6881,0.6891,0.6902,0.6916,0.6922,0.6938,0.6956,0.6956,0.6976,0.6988,0.7011,0.7019,0.7034,0.7029,0.7036,0.7038,0.7039,0.704,0.6996,0.7037,0.7037,0.7037,0.7037,0.7037,0,0.688,0.6887,0.6903,0.692,0.6933,0.6929,0.6942,0.6953,0.6971,0.6982,0.6996,0.7017,0.7034,0.7042,0.7059,0.707,0.7069,0.7074,0.7073,0.7075,0.7044,0.7038,0.7074,0.7074,0.7074,0.7074,0.7074,0.7074,0.6903,0.6927,0.6929,0.6957,0.6964,0.6984,0.6991,0.7002,0.701,0.7034,0.7047,0.7053,0.7062,0.7079,0.7094,0.7096,0.7103,0.7108,0.711,0.7081,0.7077,0.7073,0.7068,0.711,0.711,0.7139,0.7139,0.7139]}]]